Find Kosmos-2528

NORAD ID: 43657 Int'l Des: 2018-082 Owner: VVKOV Country: RU operational
LEOCIRCULAR

Live Position

Loading 3D Globe...

About Kosmos-2528

Description loading...

Upcoming Passes

Passes for default location (London). Set your location on the main map for personalized predictions.

Altitude History

Loading altitude history...

Two-Line Element Set

1 43657U 18082A 26109.72074696 -.00000030 00000-0 32744-4 0 9991
2 43657 67.1491 219.8582 0006939 287.0401 72.9923 13.96705201381782
Epoch: Apr 19, 2026 • Age: 9 hours

Current Status

Altitude 909.0 km
Velocity 7.40 km/s
Sub-Earth Point -3.72°S, 150.72°E
Launch Date Oct 25, 2018
Age 7.4 years
Type other

Technical Details

Classification Payload
Mass 6575.00 kg
Dry Mass 6500.00 kg
Total Mass 6575.00 kg
Length 6.30 m
Diameter 2.70 m
Span 6.30 m
Shape Cyl + 2 Pan
Manufacturer TSSKBP/ARSLO
Bus Type Yantar'-Lotos
Phase Status In Orbit
Owner/State VVKOV/RU

Most Searched